Weather History for Salisbury, MD

Change the Weather History Date:

Tuesday, December 10, 2013

  Actual Average Record
Temperature  
Mean Temperature 35 °F 40 °F  
Max Temperature 40 °F 50 °F 73 °F (1966)
Min Temperature 30 °F 31 °F 14 °F (1927)
Degree Days  
Heating Degree Days 30 25  
Month to date heating degree days 204 232  
Since 1 July heating degree days 909 1050  
Cooling Degree Days 0 0  
Month to date cooling degree days 0 0  
Year to date cooling degree days 1628 1153  
Moisture  
Dew Point 34 °F    
Average Humidity 84    
Maximum Humidity 92    
Minimum Humidity 75    
Precipitation  
Precipitation 0.09 in 0.13 in 2.12 in (1992)
Month to date precipitation 1.50 1.27  
Year to date precipitation 47.11 43.24  
Snow  
Snow 0.00 in 0.10 in 1.50 in (1932)
Month to date snowfall T 0.5  
Since 1 July snowfall T 0.7  
Snow Depth 0.00 in    
Sea Level Pressure  
Sea Level Pressure 30.04 in    
Wind  
Wind Speed 5 mph (NNW)    
Max Wind Speed 18 mph    
Max Gust Speed 21 mph    
Visibility 4 miles    
Events Rain    
T = Trace of Precipitation, MM = Missing Value Source: NWS Daily Summary

Daily Weather History Graph

Daily Weather History Graph

Search for Another Location

Airport:

Trip Planner

Search our weather history database for the weather conditions in past years. The results will help you decide how hot, cold, wet, or windy it might be!

Date:

Astronomy

Dec. 10, 2013 Rise Set
Actual Time 7:08 AM EST 4:41 PM EST
Civil Twilight 6:38 AM EST 5:11 PM EST
Nautical Twilight 6:05 AM EST 5:44 PM EST
Astronomical Twilight 5:33 AM EST 6:16 PM EST
Moon 12:37 PM EST (12/10) 12:28 AM EST (12/10)
Length of Visible Light 10h 32m
Length of Day
9h 33m
First Quarter, 61% of the Moon is Illuminated
Dec 10
First Quarter
Dec 17
Full
Dec 25
Last Quarter
Jan 1
New
Jan 7
First Quarter

Hourly Weather History & Observations

Time (EST) Temp. Windchill Dew Point Humidity Pressure Visibility Wind Dir Wind Speed Gust Speed Precip Events Conditions
12:24 AM 39.2 °F 35.0 °F 35.6 °F 87% 30.08 in 5.0 mi NW 5.8 mph - N/A   Overcast
12:54 AM 37.9 °F 32.7 °F 36.0 °F 93% 30.08 in 1.5 mi North 6.9 mph - N/A   Overcast
1:16 AM 37.4 °F 34.9 °F 35.6 °F 93% 30.06 in 2.5 mi North 3.5 mph - N/A   Overcast
1:23 AM 37.4 °F - 35.6 °F 93% 30.06 in 3.0 mi Calm Calm - N/A   Overcast
1:54 AM 37.9 °F - 36.0 °F 93% 30.06 in 4.0 mi Calm Calm - N/A   Overcast
2:54 AM 37.9 °F - 35.1 °F 89% 30.04 in 3.0 mi Calm Calm - N/A   Overcast
3:54 AM 37.9 °F 33.5 °F 35.1 °F 89% 30.04 in 3.0 mi North 5.8 mph - N/A   Overcast
4:38 AM 37.4 °F 33.8 °F 35.6 °F 93% 30.07 in 4.0 mi NW 4.6 mph - N/A   Overcast
4:54 AM 37.9 °F - 35.1 °F 89% 30.04 in 3.0 mi Calm Calm - 0.00 in Rain Light Rain
5:02 AM 37.4 °F - 35.6 °F 93% 30.02 in 3.0 mi Calm Calm - 0.00 in Rain Light Rain
5:35 AM 37.4 °F 34.9 °F 33.8 °F 87% 30.01 in 4.0 mi NNE 3.5 mph - 0.00 in Rain Light Rain
5:47 AM 37.4 °F 34.9 °F 35.6 °F 93% 30.02 in 3.0 mi North 3.5 mph - 0.00 in Rain Light Rain
5:54 AM 37.9 °F 35.5 °F 35.1 °F 89% 30.04 in 3.0 mi NNW 3.5 mph - 0.00 in Rain Light Rain
6:13 AM 37.4 °F 33.8 °F 35.6 °F 93% 30.01 in 2.5 mi North 4.6 mph - 0.00 in Rain Light Rain
6:22 AM 37.4 °F 34.9 °F 35.6 °F 93% 30.05 in 3.0 mi NW 3.5 mph - 0.00 in Rain Light Rain
6:43 AM 37.4 °F - 35.6 °F 93% 30.03 in 3.0 mi Calm Calm - 0.00 in Rain Light Rain
6:54 AM 37.9 °F - 35.1 °F 89% 30.04 in 3.0 mi Calm Calm - 0.00 in Rain Light Rain
7:03 AM 37.4 °F - 35.6 °F 93% 30.04 in 3.0 mi Calm Calm - N/A   Overcast
7:28 AM 37.4 °F 32.8 °F 35.6 °F 93% 30.05 in 3.0 mi NW 5.8 mph - 0.00 in Rain Light Rain
7:38 AM 37.4 °F 33.8 °F 35.6 °F 93% 30.02 in 3.0 mi North 4.6 mph - 0.00 in Rain Light Rain
7:54 AM 37.9 °F 35.5 °F 35.1 °F 89% 30.00 in 1.5 mi NNE 3.5 mph - 0.00 in Rain Light Rain
8:19 AM 39.2 °F 37.0 °F 35.6 °F 87% 30.00 in 2.0 mi NNE 3.5 mph - 0.00 in   Overcast
8:30 AM 39.2 °F 37.0 °F 35.6 °F 87% 29.99 in 2.0 mi NNE 3.5 mph - 0.00 in   Overcast
8:54 AM 39.0 °F 36.8 °F 35.1 °F 86% 30.00 in 2.5 mi NNE 3.5 mph - 0.00 in   Overcast
9:38 AM 39.2 °F 35.0 °F 35.6 °F 87% 30.02 in 2.5 mi NNW 5.8 mph - 0.00 in Rain Light Rain
9:54 AM 39.0 °F 34.0 °F 35.1 °F 86% 29.99 in 2.5 mi North 6.9 mph - 0.00 in   Overcast
10:13 AM 39.2 °F 33.0 °F 35.6 °F 87% 29.98 in 2.5 mi North 9.2 mph - 0.00 in Rain Light Rain
10:41 AM 37.4 °F 31.4 °F 33.8 °F 87% 29.97 in 2.0 mi North 8.1 mph - 0.04 in Rain Light Rain
10:51 AM 37.4 °F 31.4 °F 33.8 °F 87% 29.98 in 3.0 mi North 8.1 mph - 0.05 in Rain Light Rain
10:54 AM 37.9 °F 32.1 °F 34.0 °F 86% 29.99 in 2.5 mi NNW 8.1 mph - 0.05 in Rain Light Rain
11:13 AM 37.4 °F 30.3 °F 33.8 °F 87% 29.97 in 2.5 mi North 10.4 mph - 0.02 in Rain Light Rain
11:54 AM 37.9 °F 32.7 °F 34.0 °F 86% 29.98 in 2.0 mi NW 6.9 mph - 0.02 in Rain Light Rain
12:01 PM 37.4 °F 32.8 °F 35.6 °F 93% 29.96 in 2.0 mi NNW 5.8 mph - 0.01 in Rain Light Rain
12:08 PM 37.4 °F 33.8 °F 33.8 °F 87% 29.94 in 1.5 mi North 4.6 mph - 0.02 in Rain Light Rain
12:30 PM 39.2 °F 33.6 °F 35.6 °F 87% 29.95 in 1.5 mi NNW 8.1 mph - 0.02 in Rain Light Rain
12:44 PM 39.2 °F 33.6 °F 35.6 °F 87% 29.96 in 1.5 mi NNW 8.1 mph - 0.02 in   Overcast
12:54 PM 39.0 °F 31.4 °F 35.1 °F 86% 29.97 in 2.5 mi NNW 12.7 mph 17.3 mph 0.02 in   Overcast
1:01 PM 39.2 °F 31.6 °F 35.6 °F 87% 29.94 in 4.0 mi NNW 12.7 mph - N/A   Overcast
1:54 PM 37.9 °F 30.0 °F 34.0 °F 86% 30.00 in 5.0 mi NNW 12.7 mph - 0.00 in Rain Light Rain
2:54 PM 37.9 °F 32.1 °F 34.0 °F 86% 30.02 in 9.0 mi NW 8.1 mph - 0.00 in   Overcast
3:43 PM 37.4 °F 29.8 °F 33.8 °F 87% 30.03 in 10.0 mi NW 11.5 mph - N/A   Mostly Cloudy
3:54 PM 37.9 °F 30.5 °F 33.1 °F 83% 30.04 in 10.0 mi NW 11.5 mph - N/A   Scattered Clouds
4:54 PM 37.0 °F 30.4 °F 30.9 °F 79% 30.09 in 10.0 mi WNW 9.2 mph - N/A   Clear
5:54 PM 36.0 °F 32.1 °F 30.9 °F 82% 30.12 in 10.0 mi WNW 4.6 mph - N/A   Clear
6:54 PM 35.1 °F 30.1 °F 30.0 °F 82% 30.16 in 9.0 mi West 5.8 mph - N/A   Clear
7:54 PM 35.1 °F 30.1 °F 28.9 °F 78% 30.17 in 10.0 mi West 5.8 mph - N/A   Clear
8:54 PM 34.0 °F 27.2 °F 28.0 °F 79% 30.19 in 10.0 mi West 8.1 mph - N/A   Clear
9:54 PM 33.1 °F - 28.0 °F 82% 30.22 in 10.0 mi Calm Calm - N/A   Clear
10:54 PM 33.1 °F 30.0 °F 28.9 °F 85% 30.24 in 10.0 mi SSW 3.5 mph - N/A   Clear
11:54 PM 32.0 °F 28.7 °F 28.0 °F 85% 30.25 in 10.0 mi West 3.5 mph - N/A   Clear